This demonstration page uses our WeatherBlox Daily Observations layout. Learn more.

Left ArrowRight Arrow

Hourly Observations for December 9, 2019

Temp ( °F °C ) Dew Point ( °F °C ) Humidity (%) Winds ( mph kmh ) Pressure ( in mb ) Visibility ( mi km ) Precip ( " mm )
12:52 am 00:52 Cloudy 36 2.2 34 1.1 93 93 Calm 29.61 1003 7 11 0.00 0.00
1:52 am 01:52 Cloudy 35 1.7 33 0.6 93 93 SE 8 13 29.57 1001 7 11 0.00 0.00
2:52 am 02:52 Mostly Cloudy with Mist and Fog 36 2.2 35 1.7 97 97 NNW 7 11 29.62 1003 6 10 0.00 0.00
3:52 am 03:52 Mostly Cloudy with Mist and Fog 33 0.6 32 0 96 96 NNW 7 11 29.62 1003 6 10 0.00 0.00
4:31 am 04:31 Mostly Cloudy 35 1.7 33 0.6 93 93 NW 20 31 29.68 1005 7 11 0.00 0.00
4:40 am 04:40 Mostly Cloudy 37 2.8 34 1.1 89 89 NW 24 39 29.68 1005 7 11 0.00 0.00
4:52 am 04:52 Cloudy 36 2.2 33 0.6 89 89 NNW 22 35 29.66 1005 9 14 0.00 0.00
5:01 am 05:01 Cloudy 35 1.7 33 0.6 93 93 NNW 22 35 29.70 1006 8 13 0.00 0.00
5:39 am 05:39 Cloudy with Light Freezing Drizzle 30 -1.1 29 -1.7 96 96 NNW 31 50 29.74 1007 6 10 0.00 0.00
5:48 am 05:48 Cloudy with Mist and Fog 28 -2 27 -3 93 93 NW 23 37 29.74 1007 6 10 0.00 0.00
5:52 am 05:52 Cloudy 28 -2.2 25 -3.9 88 88 NW 31 50 29.71 1006 7 11 0.00 0.00
6:19 am 06:19 Cloudy 25 -3.9 21 -6.1 85 85 NNW 32 52 29.79 1009 10 16 0.00 0.00
6:48 am 06:48 Cloudy 21 -6 16 -9 80 80 NW 35 56 29.84 1010 10 16 0.00 0.00
6:52 am 06:52 Cloudy 22 -5.6 15 -9.4 75 75 NW 29 46 29.78 1009 10 16 0.00 0.00
7:30 am 07:30 Windy with Snow Likely 17 -8.3 11 -11.7 77 77 NNW 32 52 29.90 1012 3 4 0.00 0.00
7:45 am 07:45 Windy with Snow Likely 17 -8.3 12 -11.1 80 80 NNW 22 35 29.92 1013 2 3 0.00 0.00
7:52 am 07:52 Windy with Snow Likely 17 -8.3 13 -10.6 84 84 NW 24 39 29.86 1011 1 2 0.00 0.00
7:56 am 07:56 Windy with Snow Likely 16 -8.9 11 -11.7 80 80 NNW 36 57 29.92 1013 1 1 0.00 0.00
8:04 am 08:04 Mostly Cloudy with Heavy Snow 15 -9.4 11 -11.7 84 84 NNW 28 44 29.93 1014 0 0 0.00 0.00
8:20 am 08:20 Mostly Cloudy with Snow 15 -9.4 11 -11.7 84 84 NNW 21 33 29.93 1014 1 1 0.00 0.00
8:52 am 08:52 Mostly Cloudy with Light Snow 15 -9.4 10 -12.2 80 80 NNW 25 41 29.88 1012 1 1 0.01 0.25
9:10 am 09:10 Windy with Snow Likely 15 -9.4 11 -11.7 84 84 NNW 21 33 29.95 1014 2 2 0.00 0.00
9:25 am 09:25 Windy with Snow Likely 15 -9.4 11 -11.7 84 84 NW 29 46 29.95 1014 2 3 0.00 0.00
9:48 am 09:48 Mostly Cloudy with Light Snow 16 -9 10 -12 79 79 NNW 25 41 29.98 1015 3 5 0.00 0.00
9:52 am 09:52 Mostly Cloudy with Light Snow 16 -8.9 10 -12.2 77 77 NNW 24 39 29.93 1014 3 5 0.00 0.00
10:32 am 10:32 Mostly Cloudy with Blowing Snow 16 -8.9 9 -12.8 74 74 NW 24 39 30.01 1016 3 5 0.00 0.00
10:52 am 10:52 Mostly Cloudy with Blowing Snow 16 -8.9 8 -13.3 71 71 NNW 26 43 29.96 1015 5 8 0.00 0.00
11:52 am 11:52 Partly Cloudy 18 -7.8 10 -12.2 71 71 NW 24 39 29.96 1015 7 11 0.00 0.00
12:52 pm 12:52 Partly Cloudy 19 -7.2 9 -12.8 65 65 NNW 24 39 29.98 1015 10 16 0.00 0.00
1:52 pm 13:52 Partly Cloudy 20 -6.7 10 -12.2 65 65 NNW 23 37 29.98 1015 10 16 0.00 0.00
2:52 pm 14:52 Mostly Sunny 20 -6.7 9 -12.8 62 62 NW 20 31 30.01 1016 10 16 0.00 0.00
3:52 pm 15:52 Sunny 20 -6.7 8 -13.3 60 60 NNW 16 26 30.03 1017 10 16 0.00 0.00
4:52 pm 16:52 Mostly Sunny 17 -8.3 8 -13.3 68 68 NW 12 19 30.09 1019 10 16 0.00 0.00
5:52 pm 17:52 Mostly Clear 16 -8.9 8 -13.3 71 71 NNW 13 20 30.09 1019 10 16 0.00 0.00
6:52 pm 18:52 Mostly Clear 16 -8.9 8 -13.3 71 71 W 5 7 30.11 1020 10 16 0.00 0.00
7:52 pm 19:52 Mostly Clear 15 -9.4 7 -13.9 70 70 WNW 6 9 30.11 1020 10 16 0.00 0.00
8:52 pm 20:52 Mostly Clear 14 -10 8 -13.3 77 77 NNW 5 7 30.11 1020 10 16 0.00 0.00
9:52 pm 21:52 Mostly Clear 17 -8.3 8 -13.3 68 68 VRB 3 6 30.12 1020 10 16 0.00 0.00
10:52 pm 22:52 Mostly Cloudy 15 -9.4 8 -13.3 74 74 SSE 6 9 30.13 1020 10 16 0.00 0.00
11:52 pm 23:52 Mostly Cloudy 16 -8.9 10 -12.2 77 77 SSE 3 6 30.15 1021 10 16 0.00 0.00

Powered by AerisWeather